User: anonymous   Login
Location: Unspecified
(0.0000°N, 0.0000°E)
Time: 05:06:36
(UTC+00:00)
Language:

Spot 1 - Orbit

View from above orbital plane
View from above orbital plane
View from above satellite
View from above satellite

Ground track
Ground track

The orbit data is extracted from the following two-line orbital elements,

1 16613U 86019A   18292.87426171  .00000016  00000-0  13057-4 0  9996
2 16613  98.6629  14.3081 0141791 322.5653 149.1498 14.65064377401177
Epoch (UTC): 19 October 2018 20:58:56
Eccentricity: 0.0141791
inclination: 98.6629°
perigee height: 577 km
apogee height: 777 km
right ascension of ascending node: 14.3081°
argument of perigee: 322.5653°
revolutions per day: 14.65064377
mean anomaly at epoch: 149.1498°
orbit number at epoch: 40117

The dashed part of the orbit path shows where the satellite is in the earth's shadow,  

DLR